GW4826 Weather Reports


Display with metric or nautical units.
time (UTC)temp
F
wind
direction
speed
MPH
gust
MPH
rain 1hr
in
rain 24hr
in
rain mn
in
humidity
%
barometer
mb
20260504110351 53 294 3.0 5.0 0.00 0.00 0.00 68 1001.2
20260504100309 53 238 1.0 4.0 0.00 0.00 0.00 66 1001.1
20260504081702 52 246 0.0 2.0 0.00 0.00 0.00 63 1002.3
20260504081158 52 275 1.0 2.0 0.00 0.00 0.00 63 1002.2
20260504080655 52 205 1.0 1.0 0.00 0.00 0.00 63 1002.3
20260504080152 52 173 0.0 2.0 0.00 0.00 0.00 64 1002.4
20260504070119 48 212 1.0 2.0 0.00 0.00 0.00 68 1003.4
20260504050508 48 150 0.0 1.0 0.00 0.00 0.00 69 1004.5
20260504050005 48 173 0.0 2.0 0.00 0.00 0.00 70 1004.7
20260504045501 48 173 0.0 0.0 0.00 0.00 0.00 68 1004.5
20260504044957 48 135 0.0 1.0 0.00 0.00 0.00 66 1004.6
20260504044454 49 154 0.0 1.0 0.00 0.00 0.00 67 1004.7
20260504043952 49 209 0.0 1.0 0.00 0.00 0.00 67 1005.1
20260504043448 49 162 0.0 1.0 0.00 0.00 0.00 69 1005.0
20260504042946 49 160 0.0 1.0 0.00 0.00 0.00 68 1005.1
20260504042442 49 135 0.0 0.0 0.00 0.00 0.00 67 1005.2
20260504041939 49 81 0.0 2.0 0.00 0.00 0.00 67 1005.4
20260504041435 49 224 0.0 1.0 0.00 0.00 0.00 67 1005.3
20260504040931 49 135 0.0 0.0 0.00 0.00 0.00 67 1005.3
20260504040429 49 138 2.0 2.0 0.00 0.00 0.00 65 1005.8
20260504035925 50 116 0.0 1.0 0.00 0.00 0.00 65 1005.5
20260504035423 50 134 1.0 2.0 0.00 0.00 0.00 65 1005.5
20260504034919 50 144 2.0 3.0 0.00 0.00 0.00 65 1005.7
20260504034417 51 145 4.0 4.0 0.00 0.00 0.00 63 1005.8
20260504033914 51 159 2.0 2.0 0.00 0.00 0.00 60 1005.9
20260504033412 52 135 0.0 0.0 0.00 0.00 0.00 57 1006.1
20260504032908 52 135 0.0 0.0 0.00 0.00 0.00 57 1006.2
20260504032405 53 121 0.0 2.0 0.00 0.00 0.00 56 1006.2
20260504031902 53 140 1.0 2.0 0.00 0.00 0.00 56 1006.3
20260504031359 53 140 3.0 3.0 0.00 0.00 0.00 54 1006.2
20260504030855 54 150 2.0 2.0 0.00 0.00 0.00 51 1006.2
20260504030353 53 152 2.0 2.0 0.00 0.00 0.00 52 1006.3
20260504025848 53 124 0.0 0.0 0.00 0.00 0.00 51 1006.3
20260504025346 54 72 0.0 0.0 0.00 0.00 0.00 50 1006.5
20260504024842 55 129 0.0 1.0 0.00 0.00 0.00 48 1006.5
20260504024339 56 195 1.0 2.0 0.00 0.00 0.00 47 1006.4
20260504023836 55 179 0.0 2.0 0.00 0.00 0.00 48 1006.9
20260504023333 56 155 1.0 2.0 0.00 0.00 0.00 51 1006.3
20260504022828 56 142 0.0 0.0 0.00 0.00 0.00 45 1006.8
20260504022325 57 140 1.0 1.0 0.00 0.00 0.00 45 1006.8
20260504021821 57 171 1.0 2.0 0.00 0.00 0.00 47 1006.5
20260504021319 57 146 1.0 1.0 0.00 0.00 0.00 47 1006.5
20260504020816 58 171 0.0 1.0 0.00 0.00 0.00 45 1006.9
20260504020313 58 169 1.0 1.0 0.00 0.00 0.00 44 1006.7
20260504015809 59 147 1.0 2.0 0.00 0.00 0.00 43 1006.9
20260504015305 60 158 1.0 2.0 0.00 0.00 0.00 41 1007.0
20260504014801 62 136 2.0 2.0 0.00 0.00 0.00 37 1006.9
20260504014257 64 240 0.0 1.0 0.00 0.00 0.00 34 1007.0
20260504013755 65 275 1.0 2.0 0.00 0.00 0.00 33 1006.9
20260504013253 66 279 2.0 2.0 0.00 0.00 0.00 32 1007.2
20260504012749 66 267 2.0 3.0 0.00 0.00 0.00 32 1007.1
20260504012247 66 274 2.0 3.0 0.00 0.00 0.00 32 1007.3
20260504011744 67 269 2.0 3.0 0.00 0.00 0.00 31 1007.1
20260504011240 67 278 3.0 3.0 0.00 0.00 0.00 32 1007.1
20260504010737 67 279 3.0 3.0 0.00 0.00 0.00 32 1007.2
20260504010232 68 280 3.0 4.0 0.00 0.00 0.00 32 1007.5
20260504005729 68 276 3.0 4.0 0.00 0.00 0.00 32 1007.4
20260504005226 69 275 5.0 5.0 0.00 0.00 0.00 31 1007.4
20260504004724 69 275 4.0 6.0 0.00 0.00 0.00 30 1007.5
20260504004221 69 268 4.0 5.0 0.00 0.00 0.00 30 1007.4
20260504003717 70 274 5.0 5.0 0.00 0.00 0.00 29 1007.7
20260504003214 70 280 7.0 9.0 0.00 0.00 0.00 28 1007.7
20260504002711 70 268 4.0 5.0 0.00 0.00 0.00 30 1007.6
20260504002208 70 266 4.0 6.0 0.00 0.00 0.00 30 1007.8
20260504001706 70 262 5.0 10.0 0.00 0.00 0.00 28 1007.9
20260504001202 70 278 8.0 9.0 0.00 0.00 0.00 28 1007.7
20260504000659 70 280 7.0 11.0 0.00 0.00 0.00 29 1007.8
20260504000156 71 278 8.0 11.0 0.00 0.00 0.00 29 1007.8
20260503235654 71 258 5.0 9.0 0.00 0.00 0.00 32 1007.9
20260503235151 72 276 9.0 10.0 0.00 0.00 0.00 30 1007.9
20260503234649 72 259 7.0 9.0 0.00 0.00 0.00 29 1007.8
20260503234147 71 252 4.0 9.0 0.00 0.00 0.00 30 1008.0
20260503233643 71 271 6.0 9.0 0.00 0.00 0.00 32 1008.1
20260503233139 72 271 5.0 8.0 0.00 0.00 0.00 33 1008.2
20260503232636 72 278 9.0 10.0 0.00 0.00 0.00 31 1008.3
20260503232134 72 261 7.0 11.0 0.00 0.00 0.00 32 1008.3
20260503231632 73 268 6.0 9.0 0.00 0.00 0.00 32 1008.3
20260503231128 73 262 7.0 11.0 0.00 0.00 0.00 31 1008.3
20260503230625 72 279 5.0 8.0 0.00 0.00 0.00 32 1008.4
20260503230122 72 244 4.0 9.0 0.00 0.00 0.00 32 1008.4
20260503225620 72 269 7.0 13.0 0.00 0.00 0.00 32 1008.5
20260503225119 73 246 4.0 8.0 0.00 0.00 0.00 31 1008.4
20260503224617 74 279 6.0 7.0 0.00 0.00 0.00 30 1008.5
20260503224114 74 256 3.0 7.0 0.00 0.00 0.00 32 1008.6
20260503223612 74 257 4.0 6.0 0.00 0.00 0.00 31 1008.4
20260503223108 73 258 6.0 8.0 0.00 0.00 0.00 32 1008.5
20260503222606 73 269 7.0 9.0 0.00 0.00 0.00 32 1008.6
20260503222103 73 256 6.0 11.0 0.00 0.00 0.00 33 1008.7
20260503221601 73 306 5.0 10.0 0.00 0.00 0.00 32 1008.7
20260503221058 73 259 3.0 5.0 0.00 0.00 0.00 33 1008.7
20260503220555 73 255 6.0 7.0 0.00 0.00 0.00 33 1008.8
20260503220052 73 257 7.0 11.0 0.00 0.00 0.00 33 1008.7
20260503215549 73 273 6.0 7.0 0.00 0.00 0.00 34 1008.9
20260503215046 74 263 5.0 10.0 0.00 0.00 0.00 32 1008.7
20260503214544 74 257 4.0 8.0 0.00 0.00 0.00 33 1009.0
20260503214040 73 277 6.0 7.0 0.00 0.00 0.00 33 1009.0
20260503213539 73 271 5.0 9.0 0.00 0.00 0.00 35 1009.1
20260503213035 73 284 8.0 12.0 0.00 0.00 0.00 35 1009.1
20260503212532 72 289 3.0 9.0 0.00 0.00 0.00 33 1009.4
20260503212030 73 263 5.0 12.0 0.00 0.00 0.00 35 1009.5
20260503211527 72 255 6.0 12.0 0.00 0.00 0.00 33 1009.6
20260503211022 73 254 4.0 6.0 0.00 0.00 0.00 33 1009.7
20260503210519 73 260 5.0 11.0 0.00 0.00 0.00 35 1009.7
20260503210015 72 287 6.0 9.0 0.00 0.00 0.00 33 1009.9
20260503205512 72 281 9.0 12.0 0.00 0.00 0.00 35 1009.7
20260503205008 71 289 6.0 10.0 0.00 0.00 0.00 35 1009.9
20260503204505 72 277 9.0 10.0 0.00 0.00 0.00 34 1010.1
20260503204002 71 250 5.0 6.0 0.00 0.00 0.00 39 1010.1
20260503203459 71 258 2.0 7.0 0.00 0.00 0.00 38 1010.2
20260503202956 73 297 6.0 9.0 0.00 0.00 0.00 37 1010.3
20260503202454 72 286 7.0 9.0 0.00 0.00 0.00 35 1010.5
20260503201952 72 276 9.0 11.0 0.00 0.00 0.00 35 1010.6
20260503201450 72 277 6.0 10.0 0.00 0.00 0.00 37 1010.7
20260503200947 72 265 3.0 9.0 0.00 0.00 0.00 35 1010.7
20260503200443 72 248 6.0 10.0 0.00 0.00 0.00 34 1011.0
20260503195940 71 271 5.0 11.0 0.00 0.00 0.00 36 1010.9
20260503195437 71 280 7.0 12.0 0.00 0.00 0.00 36 1010.7
20260503194933 72 276 9.0 13.0 0.00 0.00 0.00 36 1010.9
20260503194430 72 17 3.0 3.0 0.00 0.00 0.00 37 1010.8
20260503193926 71 266 4.0 10.0 0.00 0.00 0.00 38 1011.0
20260503193421 71 271 5.0 12.0 0.00 0.00 0.00 37 1011.1
20260503192917 71 261 6.0 10.0 0.00 0.00 0.00 38 1011.2
20260503192414 70 285 9.0 10.0 0.00 0.00 0.00 40 1011.1
20260503191909 71 278 5.0 5.0 0.00 0.00 0.00 39 1011.1
20260503191408 71 249 5.0 5.0 0.00 0.00 0.00 41 1011.3
20260503190903 70 307 4.0 9.0 0.00 0.00 0.00 36 1011.6
20260503190401 69 287 6.0 10.0 0.00 0.00 0.00 39 1011.4
20260503185857 70 312 9.0 11.0 0.00 0.00 0.00 40 1011.5
20260503185354 69 278 6.0 8.0 0.00 0.00 0.00 40 1011.6
20260503184854 70 248 6.0 11.0 0.00 0.00 0.00 39 1011.9
20260503184350 70 304 7.0 11.0 0.00 0.00 0.00 40 1011.9
20260503183846 70 338 5.0 7.0 0.00 0.00 0.00 45 1011.6
20260503183343 69 298 3.0 7.0 0.00 0.00 0.00 40 1011.9
20260503182840 69 312 4.0 9.0 0.00 0.00 0.00 43 1012.1
20260503182340 69 317 7.0 9.0 0.00 0.00 0.00 39 1012.1
20260503181836 69 300 11.0 17.0 0.00 0.00 0.00 38 1012.4
20260503181333 69 264 5.0 8.0 0.00 0.00 0.00 40 1012.3
20260503180830 69 309 5.0 6.0 0.00 0.00 0.00 39 1012.5
20260503180328 69 325 3.0 9.0 0.00 0.00 0.00 42 1012.7
20260503175824 69 285 9.0 10.0 0.00 0.00 0.00 39 1012.7
20260503175322 69 276 5.0 8.0 0.00 0.00 0.00 39 1012.7
20260503174817 68 276 4.0 8.0 0.00 0.00 0.00 42 1012.9
20260503174316 68 321 6.0 12.0 0.00 0.00 0.00 41 1012.7
20260503173811 68 251 3.0 5.0 0.00 0.00 0.00 43 1012.9
20260503173307 68 264 4.0 7.0 0.00 0.00 0.00 41 1012.9
20260503172804 68 356 5.0 8.0 0.00 0.00 0.00 45 1013.0
20260503172302 67 288 8.0 9.0 0.00 0.00 0.00 42 1013.1
20260503171757 67 1 6.0 6.0 0.00 0.00 0.00 44 1013.2
20260503171255 68 332 9.0 10.0 0.00 0.00 0.00 43 1013.3
20260503170752 67 286 4.0 10.0 0.00 0.00 0.00 41 1013.3
20260503170248 67 291 3.0 8.0 0.00 0.00 0.00 44 1013.2
20260503160210 64 347 5.0 7.0 0.00 0.00 0.00 45 1013.2
20260503150641 60 313 5.0 6.0 0.00 0.00 0.00 55 1013.7
20260503150136 60 295 5.0 6.0 0.00 0.00 0.00 56 1013.5
20260503131030 52 317 4.0 5.0 0.00 0.00 0.00 69 1013.3
20260503130527 52 322 3.0 6.0 0.00 0.00 0.00 69 1013.3